Flag for Micronesia Weather past 2 weeks in Kolonia, Ponape, Micronesia

Now
78 °F

Overcast.


Feels Like: 82 °F
Forecast: 76 / 87 °F
Wind: 2 mph from South

Location: Pohnpei

Current Time: Oct 26, 2014 at 1:40:44 AM

Latest Report: Oct 26, 2014 at 12:54 AM


Visibility: 15 mi

Pressure: 29.85 "Hg

Humidity: 92%

Dew point: 76 °F

Location of KoloniaLocation

Historic Weather in Kolonia — Graph

°F

Kolonia temperature yesterday

Maximum temperature yesterday: 88 °F (at 12:50 PM)
Minimum temperature yesterday: 76 °F (at 6:53 AM)
Average temperature yesterday: 81 °F

Past Weeks' High & Low Weather Summary

 TemperatureHumidityPressure
High93 °F (Oct 19, 2:52 PM)100% (Oct 13, 1:51 AM)29.97 "Hg (Oct 13, 1:51 AM)
Low72 °F (Oct 15, 2:50 AM)48% (Oct 15, 9:53 AM)29.77 "Hg (Oct 20, 3:55 PM)
Average80 °F86%29.86 "Hg
* Reported Oct 10 11:50 PM — Oct 25 11:52 PM, Kolonia, Weather by CustomWeather, © 2014

Note: Actual official high and low records may vary slightly from our data, if they occured in-between our weather recording intervals... More about our weather records

Advertising

Kolonia weather history for previous 24 hours

 ConditionsComfort  
Time TempWeatherWind HumidityBarometerVisibility
11:52 PM
Oct 25
78 °FPassing clouds.3 mph95%29.87 "Hg15 mi
10:51 PM79 °FPassing clouds.3 mph94%29.88 "Hg15 mi
9:53 PM79 °FOvercast.3 mph91%29.88 "Hg15 mi
8:52 PM80 °FOvercast.3 mph92%29.88 "Hg15 mi
7:53 PM82 °FOvercast.3 mph84%29.87 "Hg15 mi
6:53 PM83 °FOvercast.3 mph81%29.85 "Hg15 mi
5:50 PM83 °FMore clouds than sun.6 mph81%29.82 "Hg15 mi
4:53 PM84 °FCloudy.7 mph77%29.81 "Hg15 mi
3:50 PM84 °FMostly cloudy.9 mph78%29.80 "Hg15 mi
2:50 PM87 °FCloudy.7 mph72%29.80 "Hg15 mi
1:50 PM87 °FMore clouds than sun.9 mph75%29.82 "Hg15 mi
12:50 PM88 °FPartly sunny.5 mph70%29.83 "Hg15 mi
11:50 AM86 °FMore clouds than sun.7 mph75%29.85 "Hg15 mi
10:50 AM85 °FPartly sunny.9 mph77%29.86 "Hg15 mi
9:50 AM82 °FPartly sunny.5 mph86%29.88 "Hg15 mi
8:52 AM83 °FPartly sunny.6 mph88%29.89 "Hg15 mi
7:53 AM78 °FOvercast.3 mph96%29.88 "Hg15 mi
6:53 AM76 °FMostly cloudy.5 mph99%29.88 "Hg15 mi
5:53 AM76 °FOvercast.3 mph97%29.87 "Hg15 mi
4:53 AM76 °FLight rain. Mostly cloudy.3 mph97%29.85 "Hg14 mi
3:53 AM76 °FLight rain. Mostly cloudy.No wind99%29.85 "Hg14 mi
2:50 AM76 °FSprinkles. Mostly cloudy.3 mph99%29.85 "Hg10 mi
1:53 AM77 °FSprinkles. Mostly cloudy.3 mph96%29.85 "Hg10 mi
Weather by CustomWeather, © 2014

See weather overviewHow to use our weather pages